www.pogodaiklimat.ru

Погода и климат >> Архив погоды >> Норвегия >> Krakenes


ПОГОДА в Krakenes

  • Прогноз погоды в Krakenes
  • Монитор погоды в Krakenes
  • Климат города

АРХИВ ПОГОДЫ в Krakenes

Время (UTC), дата Ветер
(напр.,м/с)
 
Видим.   Явления Облачность Т
(С)
Тd
(С)
f
(%)
Тe
(С)
Тes
(С)
Комфортность P
(гПа)
Po
(гПа)
Тmin
(С)
Tmax
(С)
R
(мм)
R24
(мм)
S
(см)
04 19.05 СЗ 2
{5}
н/о н/о +7.1 +6 +6 1014.6 1009.7
05 19.05 СВ 3
{5}
н/о н/о +7.0 +5 +5 1014.9 1010.0
06 19.05 СВ 3
{5}
н/о н/о +7.1 +6 +6 1014.9 1010.0 +6.7 +9.4
07 19.05 СВ 4
{6}
н/о н/о +8.0 +6 +6 1015.2 1010.3
08 19.05 СВ 4
{6}
н/о н/о +9.4 +8 +8 1015.3 1010.4
09 19.05 СВ 5
{6}
н/о н/о +9.5 +7 +7 1015.3 1010.4
10 19.05 СВ 8
{10}
н/о н/о +9.4 +6 +6 1014.6 1009.7
11 19.05 СВ 8
{12}
н/о н/о +10.3 +8 +8 1014.8 1010.0
12 19.05 С 9
{12}
н/о н/о +10.8 +8 +8 1014.4 1009.6
13 19.05 СВ 10
{13}
н/о н/о +11.0 +8 +8 1014.1 1009.3
14 19.05 СВ 14
{16}
н/о н/о +10.8 +7 +7 1013.6 1008.8
15 19.05 СВ 9
{16}
н/о н/о +11.9 +9 +9 1014.4 1009.6
16 19.05 СВ 11
{14}
н/о н/о +11.1 +8 +8 1013.9 1009.1
17 19.05 СВ 13
{16}
н/о н/о +10.9 +7 +7 1013.7 1008.9
18 19.05 СВ 8
{16}
н/о н/о +11.1 +9 +9 1014.3 1009.5 +7.0 +12.3
19 19.05 СВ 8
{13}
н/о н/о +11.1 +9 +9 1014.8 1010.0
20 19.05 В 9
{11}
н/о н/о +12.4 +10 +10 1014.6 1009.8
21 19.05 В 10
{12}
н/о н/о +11.9 +9 +9 1014.9 1010.1
22 19.05 В 8
{12}
н/о н/о +12.0 +10 +10 1015.1 1010.3
23 19.05 В 8
{11}
н/о н/о +12.0 +10 +10 1014.9 1010.1
00 20.05 В 9
{13}
н/о н/о +11.6 +9 +9 1014.9 1010.1
01 20.05 СВ 7
{11}
н/о н/о +11.1 +9 +9 1015.1 1010.3
02 20.05 В 8
{10}
н/о н/о +11.2 +9 +9 1014.9 1010.1
03 20.05 В 8
{10}
н/о н/о +11.0 +8 +8 1014.7 1009.9
04 20.05 В 6
{10}
н/о н/о +11.6 +10 +10 1014.4 1009.6
05 20.05 СВ 5
{9}
н/о н/о +11.5 +10 +10 1014.5 1009.7
06 20.05 В 5
{11}
н/о н/о +13.0 +12 +12 1014.5 1009.7 +10.4 +13.0
07 20.05 СВ 7
{8}
н/о н/о +13.7 +12 +12 1014.7 1009.9
08 20.05 СВ 4
{8}
н/о н/о +13.2 +12 +12 1014.6 1009.8
09 20.05 СВ 5
{6}
н/о н/о +13.0 +12 +12 1014.5 1009.7
10 20.05 СВ 5
{7}
н/о н/о +13.7 +13 +13 1014.4 1009.6
11 20.05 СВ 5
{7}
н/о н/о +13.8 +13 +13 1013.9 1009.1
12 20.05 СВ 5
{8}
н/о н/о +13.3 +12 +12 1013.7 1008.9
13 20.05 СВ 4
{8}
н/о н/о +12.7 +12 +12 1013.6 1008.8
14 20.05 СВ 6
{9}
н/о н/о +13.5 +12 +12 1013.5 1008.7
15 20.05 СВ 3
{7}
н/о н/о +14.8 +15 +15 1013.7 1008.9
16 20.05 Ю 1
{5}
н/о н/о +15.3 +16 +16 1014.3 1009.5
17 20.05 Ю 21
{24}
н/о н/о +11.5 +7 +7 1013.9 1009.1
18 20.05 Ю 9
{25}
н/о н/о +10.7 +6 +6 1015.1 1010.3 +10.6 +15.3
19 20.05 Ю 17
{22}
н/о н/о +10.4 +6 +6 1016.7 1011.9
20 20.05 Ю 15
{21}
н/о н/о +10.1 +6 +6 1018.0 1013.1
21 20.05 Ю 15
{17}
н/о н/о +10.0 +6 +6 1018.5 1013.6
22 20.05 Ю 12
{18}
н/о н/о +10.1 +6 +6 1019.7 1014.8
23 20.05 Ю 17
{18}
н/о н/о +10.3 +6 +6 1018.6 1013.7
00 21.05 Ю 12
{22}
н/о н/о +10.1 +6 +6 1019.8 1014.9
01 21.05 Ю 8
{13}
н/о н/о +10.4 +8 +8 1020.4 1015.5
02 21.05 Ю 8
{11}
н/о н/о +9.6 +7 +7 1020.8 1015.9
03 21.05 Ю 8
{9}
н/о н/о +9.7 +7 +7 1020.8 1015.9
04 21.05 Ю 6
{9}
н/о н/о +9.3 +7 +7 1020.9 1016.0
05 21.05 Ю 6
{9}
н/о н/о +9.4 +7 +7 1020.7 1015.8
06 21.05 Ю 5
{13}
н/о н/о +9.0 +7 +7 1020.8 1015.9 +8.9 +11.0
07 21.05 Ю 6
{9}
н/о н/о +8.7 +6 +6 1021.1 1016.2
08 21.05 Ю 7
{9}
н/о н/о +8.9 +6 +6 1021.1 1016.2
09 21.05 Ю 5
{8}
н/о н/о +8.9 +7 +7 1020.9 1016.0
10 21.05 ЮЗ 5
{8}
н/о н/о +9.2 +7 +7 1021.0 1016.1
11 21.05 ЮЗ 6
{7}
н/о н/о +9.2 +7 +7 1021.2 1016.3
12 21.05 ЮЗ 6
{9}
н/о н/о +9.2 +7 +7 1021.3 1016.4
13 21.05 ЮЗ 6
{7}
н/о н/о +9.3 +7 +7 1021.2 1016.3
14 21.05 ЮЗ 6
{7}
н/о н/о +9.1 +7 +7 1021.1 1016.2
15 21.05 ЮЗ 7
{8}
н/о н/о +9.7 +7 +7 1020.9 1016.0
16 21.05 ЮЗ 8
{11}
н/о н/о +9.6 +7 +7 1020.7 1015.8
17 21.05 ЮЗ 11
{12}
н/о н/о +9.2 +5 +5 1020.2 1015.3
18 21.05 Ю 7
{12}
н/о н/о +8.8 +6 +6 1020.9 1016.0 +8.6 +10.1
19 21.05 Ю 5
{6}
н/о н/о +8.8 +7 +7 1020.8 1015.9
20 21.05 ЮЗ 3
{6}
н/о н/о +8.7 +7 +7 1021.0 1016.1
21 21.05 ЮЗ 2
{4}
н/о н/о +8.6 +8 +8 1021.1 1016.2
22 21.05 Ю 3
{3}
н/о н/о +8.8 +8 +8 1021.1 1016.2
23 21.05 Ю 5
{5}
н/о н/о +8.8 +7 +7 1020.9 1016.0
00 22.05 Ю 4
{6}
н/о н/о +9.1 +7 +7 1021.0 1016.1
01 22.05 Ю 8
{13}
н/о н/о +8.7 +5 +5 1020.6 1015.7
02 22.05 ЮЗ 9
{12}
н/о н/о +8.7 +5 +5 1020.2 1015.3
03 22.05 ЮЗ 6
{10}
н/о н/о +8.6 +6 +6 1020.5 1015.6
04 22.05 СЗ 2
{6}
н/о н/о +8.1 +7 +7 1020.8 1015.9
05 22.05 СЗ 2
{3}
н/о н/о +8.2 +8 +8 1020.8 1015.9
06 22.05 СЗ 2
{13}
н/о н/о +8.4 +8 +8 1020.8 1015.9 +8.0 +9.5
07 22.05 З 1
{2}
н/о н/о +9.0 +10 +10 1020.8 1015.9
08 22.05 Ю 4
{5}
н/о н/о +8.7 +7 +7 1021.1 1016.2
09 22.05 ЮЗ 9
{10}
н/о н/о +8.8 +5 +5 1020.4 1015.5
10 22.05 Ю 8
{9}
н/о н/о +8.9 +6 +6 1020.8 1015.9
11 22.05 ЮЗ 8
{10}
н/о н/о +8.6 +5 +5 1020.5 1015.6
12 22.05 ЮЗ 7
{10}
н/о н/о +9.6 +7 +7 1020.6 1015.7
13 22.05 ЮЗ 4
{8}
н/о н/о +10.6 +9 +9 1020.7 1015.8
14 22.05 ЮЗ 4
{6}
н/о н/о +10.1 +9 +9 1020.3 1015.4
15 22.05 ЮЗ 5
{6}
н/о н/о +10.0 +8 +8 1019.6 1014.7
16 22.05 ЮЗ 4
{7}
н/о н/о +10.8 +9 +9 1019.4 1014.5
17 22.05 ЮЗ 2
{5}
н/о н/о +10.9 +11 +11 1019.1 1014.2
18 22.05 ЮЗ 2
{8}
н/о н/о +10.7 +10 +10 1018.5 1013.7 +8.3 +11.6
19 22.05 СЗ 1
{3}
н/о н/о +10.8 +12 +12 1018.1 1013.3
20 22.05 СВ 2
{3}
н/о н/о +9.1 +9 +9 1017.9 1013.0
21 22.05 СВ 2
{3}
н/о н/о +8.7 +8 +8 1017.7 1012.8
22 22.05 В 2
{4}
н/о н/о +9.4 +9 +9 1017.4 1012.5
23 22.05 СВ 4
{4}
н/о н/о +8.7 +7 +7 1016.9 1012.0
00 23.05 В 4
{4}
н/о н/о +8.9 +7 +7 1016.5 1011.6
01 23.05 В 3
{4}
н/о н/о +9.5 +8 +8 1016.2 1011.3
02 23.05 В 5
{6}
н/о н/о +8.9 +7 +7 1015.6 1010.7
03 23.05 В 4
{6}
н/о н/о +9.4 +8 +8 1015.1 1010.2
04 23.05 ЮВ 2
{4}
н/о н/о +9.7 +9 +9 1014.8 1010.0
05 23.05 СВ 1
{3}
н/о н/о +10.8 +12 +12 1014.6 1009.8
06 23.05 В 4
{6}
н/о н/о +10.4 +9 +9 1014.1 1009.3 +8.6 +11.3
07 23.05 ЮВ 1
{5}
н/о н/о +11.4 +12 +12 1014.1 1009.3
08 23.05 ЮВ 1
{3}
н/о н/о +12.2 +13 +13 1014.0 1009.2
09 23.05 СВ 1
{3}
н/о н/о +13.1 +14 +14 1013.8 1009.0
10 23.05 С 3
{3}
н/о н/о +13.8 +13 +13 1013.9 1009.1
11 23.05 С 4
{6}
н/о н/о +12.8 +12 +12 1013.7 1008.9
12 23.05
{6}
н/о н/о +13.8 1013.7 1008.9
13 23.05
{6}
н/о н/о +14.0 1013.9 1009.1
14 23.05 С 3
{5}
н/о н/о +13.9 +13 +13 1013.5 1008.7
15 23.05 З 1
{4}
н/о н/о +14.9 +16 +16 1013.4 1008.7
16 23.05 ЮЗ 3
{5}
н/о н/о +11.7 +11 +11 1013.6 1008.8
17 23.05 Ю 4
{5}
н/о н/о +10.8 +9 +9 1013.6 1008.8
18 23.05 Ю 5
{7}
н/о н/о +12.6 +11 +11 1013.5 1008.7 +10.2 +16.0
19 23.05 В 1
{6}
н/о н/о +12.2 +13 +13 1013.7 1008.9
20 23.05 ЮЗ 1
{1}
н/о н/о +12.6 +13 +13 1013.8 1009.0
21 23.05 Ю 2
{4}
н/о н/о +12.6 +13 +13 1013.9 1009.1
22 23.05 Ю 11
{13}
н/о н/о +9.9 +6 +6 1013.5 1008.7
23 23.05 Ю 11
{14}
н/о н/о +9.3 +6 +6 1013.6 1008.8
00 24.05 Ю 15
{17}
н/о н/о +9.1 +5 +5 1012.9 1008.1
01 24.05 Ю 10
{17}
н/о н/о +9.4 +6 +6 1014.3 1009.4
02 24.05 Ю 12
{15}
н/о н/о +9.5 +6 +6 1014.1 1009.3
03 24.05 Ю 11
{13}
н/о н/о +8.9 +5 +5 1014.4 1009.5
04 24.05 ЮЗ 8
{12}
н/о н/о +8.5 +5 +5 1015.1 1010.2
05 24.05 ЮЗ 7
{9}
н/о н/о +8.5 +6 +6 1015.7 1010.8
06 24.05 Ю 6
{17}
н/о н/о +9.0 +6 +6 1016.0 1011.1 +8.1 +12.9
07 24.05 Ю 9
{10}
н/о н/о +9.1 +6 +6 1016.5 1011.6
08 24.05 Ю 10
{11}
н/о н/о +9.1 +6 +6 1016.9 1012.0
09 24.05 Ю 10
{12}
н/о н/о +9.0 +5 +5 1017.0 1012.1
10 24.05 Ю 10
{12}
н/о н/о +9.2 +6 +6 1017.4 1012.5
11 24.05 Ю 9
{12}
н/о н/о +9.4 +6 +6 1017.8 1012.9
12 24.05 Ю 9
{12}
н/о н/о +9.5 +6 +6 1018.2 1013.3
13 24.05 Ю 9
{10}
н/о н/о +9.5 +6 +6 1018.6 1013.7
14 24.05 Ю 9
{10}
н/о н/о +9.6 +6 +6 1018.8 1013.9
15 24.05 Ю 9
{11}
н/о н/о +9.5 +6 +6 1019.0 1014.1
16 24.05 ЮЗ 9
{11}
н/о н/о +9.5 +6 +6 1019.2 1014.3
17 24.05 Ю 8
{11}
н/о н/о +9.7 +7 +7 1019.4 1014.5
18 24.05 Ю 9
{11}
н/о н/о +9.4 +6 +6 1019.3 1014.4 +9.0 +10.1
19 24.05 Ю 10
{11}
н/о н/о +9.3 +6 +6 1019.2 1014.3
20 24.05 Ю 10
{12}
н/о н/о +9.2 +6 +6 1019.2 1014.3
21 24.05 Ю 10
{12}
н/о н/о +9.2 +6 +6 1019.0 1014.1
22 24.05 Ю 11
{13}
н/о н/о +9.2 +5 +5 1018.8 1013.9
23 24.05 Ю 12
{14}
н/о н/о +9.2 +5 +5 1018.4 1013.5
00 25.05 Ю 13
{15}
н/о н/о +9.2 +5 +5 1018.2 1013.3
01 25.05 Ю 14
{15}
н/о н/о +9.2 +5 +5 1017.7 1012.8
02 25.05 Ю 14
{16}
н/о н/о +9.3 +5 +5 1017.2 1012.3
03 25.05 Ю 15
{17}
н/о н/о +8.9 +4 +4 1015.8 1010.9
04 25.05 Ю 10
{16}
н/о н/о +9.7 +6 +6 1015.4 1010.5
05 25.05 Ю 15
{18}
н/о н/о +10.0 +6 +6 1014.4 1009.6
06 25.05 Ю 21
{25}
н/о н/о +10.0 1013.0 1008.2 +8.9
07 25.05 Ю 20
{24}
н/о н/о +9.7 +5 +5 1014.5 1009.7
08 25.05 Ю 17
{23}
н/о н/о +10.0 +5 +5 1015.3 1010.5
09 25.05 Ю 15
{18}
н/о н/о +9.7 +5 +5 1016.4 1011.5
10 25.05 Ю 13
{15}
н/о н/о +9.7 +6 +6 1017.1 1012.2
11 25.05 Ю 12
{14}
н/о н/о +9.6 +6 +6 1017.8 1012.9
12 25.05 Ю 10
{24}
н/о н/о +9.5 +6 +6 1018.3 1013.4
13 25.05 Ю 11
{13}
н/о н/о +9.5 +6 +6 1018.5 1013.6
14 25.05 Ю 11
{12}
н/о н/о +9.4 +6 +6 1018.8 1013.9
15 25.05 Ю 10
{13}
н/о н/о +9.4 +6 +6 1019.7 1014.8
16 25.05 Ю 8
{12}
н/о н/о +9.5 +6 +6 1020.0 1015.1
17 25.05 Ю 8
{11}
н/о н/о +9.4 +6 +6 1020.1 1015.2
18 25.05 Ю 8
{13}
н/о н/о +9.3 +6 +6 1020.3 1015.4 +9.3 +10.2
19 25.05 Ю 9
{10}
н/о н/о +9.4 +6 +6 1020.2 1015.3
20 25.05 Ю 9
{11}
н/о н/о +9.4 +6 +6 1020.6 1015.7
21 25.05 Ю 11
{12}
н/о н/о +9.3 +6 +6 1020.4 1015.5
22 25.05 Ю 12
{13}
н/о н/о +9.2 +5 +5 1020.3 1015.4
23 25.05 Ю 9
{13}
н/о н/о +9.4 +6 +6 1020.8 1015.9
00 26.05 Ю 13
{14}
н/о н/о +9.4 +5 +5 1020.5 1015.6
01 26.05 Ю 13
{14}
н/о н/о +9.5 +5 +5 1020.3 1015.4
02 26.05 Ю 13
{15}
н/о н/о +9.5 +5 +5 1020.3 1015.4
03 26.05 Ю 13
{15}
н/о н/о +9.4 +5 +5 1020.5 1015.6
04 26.05 Ю 11
{14}
н/о н/о +9.4 +6 +6 1021.0 1016.1

 

Местоположение метеостанции Krakenes (Норвегия): широта 62.03 долгота 4.99 высота над уровнем моря 75 м.

В архиве по умолчанию представлена погода в Krakenes за последнюю неделю. Архивные данные за месяц целиком и за предыдущие месяцы, начиная с января 2011 года, Вы можете получить, выбрав интересующий диапазон дат из раскрывающегося списка и нажав кнопку "Ввод!".

Внимание! Время в таблицах - всемирное. Для получения местного времени необходимо прибавить поправку, которая в Krakenes равна 1 ч.

Смотрите также архив погоды в соседних городах и на ближайших метеорологических станциях:

Погода в Bergen Lufthavn (Норвегия) (31 км)
Погода в Fiskabygd (Норвегия) (32 км)
Погода в Svinoy Fyr (Норвегия) (36 км)
Погода в Floro Lifthavn (Норвегия) (50 км)
Погода в Ytteroyane Fyr (Норвегия) (54 км)
Погода в Orsta-Volda Lufthavn (Норвегия) (59 км)
Погода в Sandane Lufthavn (Норвегия) (62 км)
Погода в Forde Tefre (Норвегия) (79 км)
Погода в Alesund IV (Норвегия) (80 км)
Погода в Forde Lifthavn (Норвегия) (82 км)

Пояснения к столбцам:

Ветер - указаны скорость ветра в м/с - средняя за 10 мин, порывы в срок и между сроками (в фигурных скобках) и направление, откуда дует ветер: С - северный, СВ - северо-восточный, В - восточный, ЮВ - юго-восточный, Ю - южный, ЮЗ - юго-западный, З - западный, СЗ - северо-западный.
Видимость - горизонтальная дальность видимости в метрах или километрах. При видимости от 1 до 10 км при отсутствии осадков обычно наблюдается дымка, при ухудшении видимости до 1 км и менее - туман. В сухую погоду видимость может ухудшаться дымом, пылью или мглою.
Явления - указаны атмосферные явления, наблюдавшиеся в срок или в последний час перед сроком; фигурными скобками обозначены явления, наблюдавшиеся между сроками (за 1-3 часа до срока); квадратными скобками обозначены град или гололедные отложения с указанием их диаметра в мм.
Облачность - указаны через наклонную черту общая и нижняя облачность в баллах и высота нижней границы облаков в метрах; квадратными скобками обозначены формы облаков: Ci - перистые, Cs - перисто-слоистые, Cc - перисто-кучевые, Ac - высококучевые, As - высокослоистые, Sc - слоисто-кучевые, Ns - слоисто-дождевые, Cu - кучевые, Cb - кучево-дождевые. Подробнее классификацию облаков см. в Атласе облаков (PDF).
T - Температура воздуха - температура, измеренная на высоте 2 м над землей.
Td - Температура точки росы - температура, при понижении до которой содержащийся в воздухе водяной пар достигнет насыщения.
f - Относительная влажность воздуха - влажноcть воздуха, измеренная на высоте 2 м над землей.
Te - Эффективная температура - температура, которую ощущает одетый по сезону человек в тени. Характеристика душности погоды. При расчете учитывается влияние влажности воздуха и скорости ветра на теплоощущения человека.
Tes - Эффективная температура на солнце - температура, которую ощущает человек, с поправкой на солнечный нагрев. Характеристика знойности погоды. Зависит от высоты солнца над горизонтом, облачности и скорости ветра. Ночью, в пасмурную погоду, а также при ветре 12 м/с и более поправка равна нулю.
P - Атмосферное давление - приведенное к уровню моря атмосферное давление.
Po - Атмосферное давление - измеренное на уровне метеостанции атмосферное давление.
Tmin - Минимальная температура - минимум температуры воздуха на высоте 2 м над землей.
Tmax - Максимальная температура - максимум температуры воздуха на высоте 2 м над землей.
R - Количество осадков - Количество выпавших осадков за период времени, мм. При наведении курсора мыши на число - период времени, за который выпало указанное количество осадков.
R24 - Количество осадков - Количество выпавших осадков за 24 часа, мм.
S - Снежный покров - Высота снежного покрова, см. При наведении курсора мыши на число - состояние снежного покрова и степень покрытия местности в баллах.